FW6151 Weather Reports


Display with metric or nautical units.
time (UTC)temp
F
wind
direction
speed
MPH
gust
MPH
rain 1hr
in
rain 24hr
in
rain mn
in
humidity
%
barometer
mb
20260507073556 51 183 0.0 3.0 0.00 0.65 0.20 94 1017.6
20260507073058 51 183 0.0 2.0 0.00 0.65 0.20 94 1017.6
20260507072554 51 183 0.0 2.0 0.00 0.65 0.20 93 1017.6
20260507072056 51 183 0.0 2.0 0.00 0.65 0.20 93 1017.6
20260507071551 50 183 0.0 2.0 0.01 0.65 0.20 93 1017.7
20260507071050 50 183 0.0 2.0 0.02 0.65 0.20 93 1017.5
20260507070550 50 183 0.0 1.0 0.02 0.65 0.20 93 1017.5
20260507065548 50 183 0.0 2.0 0.04 0.65 0.20 93 1017.4
20260507065048 50 183 0.0 2.0 0.04 0.65 0.20 93 1017.4
20260507064548 50 183 0.0 2.0 0.04 0.65 0.20 93 1017.4
20260507064047 50 183 0.0 2.0 0.04 0.65 0.20 93 1017.3
20260507063546 50 183 0.0 2.0 0.04 0.65 0.20 93 1017.3
20260507063052 50 183 0.0 1.0 0.05 0.65 0.20 93 1017.2
20260507062544 50 183 0.0 1.0 0.05 0.65 0.20 93 1017.3
20260507062047 50 183 0.0 1.0 0.05 0.65 0.20 93 1017.3
20260507061544 50 183 0.0 1.0 0.04 0.64 0.19 93 1017.4
20260507061043 50 183 0.0 1.0 0.03 0.63 0.18 93 1017.3
20260507060542 50 183 0.0 2.0 0.03 0.63 0.18 93 1017.2
20260507060043 49 183 0.0 4.0 0.03 0.62 0.17 93 1017.2
20260507055540 49 269 0.0 4.0 0.02 0.61 0.16 93 1017.1
20260507055039 49 196 0.0 2.0 0.02 0.61 0.16 93 1017.1
20260507054541 49 196 0.0 3.0 0.02 0.61 0.16 93 1017.0
20260507054038 49 196 0.0 2.0 0.02 0.61 0.16 93 1017.0
20260507053537 49 196 0.0 3.0 0.01 0.60 0.15 93 1017.0
20260507053038 49 196 0.0 3.0 0.01 0.60 0.15 93 1016.8
20260507052535 49 196 0.0 3.0 0.01 0.60 0.15 93 1016.8
20260507052035 49 196 0.0 2.0 0.01 0.60 0.15 93 1016.7
20260507051535 49 196 0.0 2.0 0.01 0.60 0.15 93 1016.7
20260507051034 49 196 0.0 2.0 0.01 0.60 0.15 93 1016.7
20260507050533 49 196 0.0 5.0 0.01 0.60 0.15 93 1016.6
20260507050058 49 196 0.0 5.0 0.00 0.59 0.14 93 1016.6
20260507045532 49 194 0.0 0.0 0.00 0.59 0.14 93 1016.5
20260507045032 49 194 0.0 0.0 0.00 0.59 0.14 93 1016.4
20260507044545 49 194 0.0 0.0 0.00 0.59 0.14 93 1016.3
20260507044030 49 194 0.0 2.0 0.00 0.59 0.14 93 1016.3
20260507043530 49 194 0.0 3.0 0.00 0.59 0.14 93 1016.2
20260507043030 49 194 0.0 3.0 0.00 0.59 0.14 93 1016.2
20260507042530 49 194 0.0 1.0 0.00 0.59 0.14 93 1016.2
20260507042030 49 194 0.0 2.0 0.00 0.59 0.14 93 1016.1
20260507041529 49 194 0.0 2.0 0.01 0.59 0.14 93 1016.1
20260507041032 49 194 0.0 2.0 0.01 0.59 0.14 93 1016.1
20260507040530 49 194 0.0 1.0 0.01 0.59 0.14 93 1016.1
20260507040028 49 194 0.0 2.0 0.01 0.59 0.14 93 1016.0
20260507035528 49 194 0.0 1.0 0.01 0.59 0.14 93 1016.1
20260507035031 49 194 0.0 1.0 0.01 0.59 0.14 93 1016.0
20260507034535 49 194 0.0 1.0 0.01 0.59 0.14 93 1016.0
20260507034026 49 194 0.0 2.0 0.01 0.59 0.14 93 1016.0
20260507033526 49 194 0.0 3.0 0.01 0.59 0.14 93 1015.9
20260507033033 49 252 0.0 3.0 0.01 0.59 0.14 93 1015.9
20260507032526 49 252 0.0 3.0 0.01 0.59 0.14 93 1015.8
20260507032026 49 192 0.0 2.0 0.02 0.59 0.14 93 1015.8
20260507031531 49 252 0.0 3.0 0.01 0.57 0.13 93 1015.8
20260507031029 49 198 0.0 4.0 0.01 0.57 0.13 93 1015.8
20260507030526 49 243 0.0 4.0 0.01 0.57 0.13 93 1015.8
20260507030033 49 192 0.0 6.0 0.02 0.57 0.13 93 1015.8
20260507025524 49 95 0.0 6.0 0.02 0.57 0.13 93 1015.9
20260507025024 49 125 0.0 4.0 0.03 0.57 0.13 93 1015.8
20260507024527 49 188 0.0 3.0 0.03 0.57 0.13 93 1015.8
20260507024023 49 188 0.0 4.0 0.04 0.57 0.13 93 1015.7
20260507023522 49 223 0.0 4.0 0.04 0.57 0.13 93 1015.7
20260507023022 49 167 0.0 1.0 0.05 0.57 0.13 93 1015.8
20260507022522 49 153 0.0 2.0 0.05 0.57 0.13 93 1015.6
20260507022023 49 153 0.0 2.0 0.04 0.56 0.12 93 1015.6
20260507021538 49 150 0.0 2.0 0.05 0.56 0.12 93 1015.6
20260507021021 49 123 0.0 5.0 0.05 0.56 0.12 93 1015.6
20260507020521 49 122 0.0 5.0 0.05 0.56 0.11 93 1015.6
20260507020023 49 68 0.0 2.0 0.05 0.56 0.11 93 1015.6
20260507015519 49 68 0.0 2.0 0.05 0.55 0.10 93 1015.5
20260507015019 49 68 0.0 2.0 0.06 0.55 0.10 93 1015.4
20260507014522 49 68 0.0 0.0 0.06 0.55 0.10 93 1015.4
20260507014022 49 68 0.0 0.0 0.05 0.54 0.09 93 1015.4
20260507013518 49 68 0.0 0.0 0.06 0.54 0.09 93 1015.3
20260507013018 49 68 0.0 1.0 0.05 0.53 0.08 92 1015.4
20260507012519 49 68 0.0 1.0 0.05 0.53 0.08 92 1015.3
20260507012017 49 68 0.0 0.0 0.05 0.52 0.07 92 1015.3
20260507011524 49 68 0.0 1.0 0.05 0.52 0.07 92 1015.3
20260507011016 49 68 0.0 1.0 0.05 0.52 0.07 92 1015.2
20260507010518 49 68 0.0 1.0 0.04 0.51 0.06 92 1015.2
20260507010028 49 68 0.0 0.0 0.04 0.51 0.06 92 1015.2
20260507005514 49 68 0.0 1.0 0.03 0.50 0.05 92 1015.2
20260507005021 49 68 0.0 1.0 0.02 0.49 0.04 92 1015.2
20260507004519 49 68 0.0 0.0 0.02 0.49 0.04 92 1015.2
20260507004014 49 68 0.0 0.0 0.02 0.49 0.04 92 1015.2
20260507003514 49 68 0.0 0.0 0.01 0.48 0.03 92 1015.2
20260507003013 49 68 0.0 1.0 0.01 0.48 0.03 92 1015.1
20260507002513 49 68 0.0 1.0 0.01 0.48 0.03 92 1015.0
20260507002013 49 68 0.0 0.0 0.00 0.47 0.02 92 1015.0
20260507001513 49 68 0.0 0.0 0.01 0.47 0.02 92 1015.0
20260507001012 49 68 0.0 0.0 0.01 0.47 0.02 92 1015.0
20260507000522 49 68 0.0 0.0 0.02 0.47 0.02 92 1015.0
20260507000012 49 68 0.0 1.0 0.02 0.47 0.02 92 1014.9
20260506235512 49 68 0.0 1.0 0.02 0.47 0.02 92 1014.9
20260506235016 49 68 0.0 0.0 0.02 0.47 0.02 92 1015.0
20260506234511 50 68 0.0 0.0 0.02 0.47 0.02 92 1015.0
20260506234011 50 68 0.0 0.0 0.02 0.47 0.02 92 1015.0
20260506233511 50 68 0.0 0.0 0.02 0.47 0.02 92 1015.0
20260506233011 50 68 0.0 0.0 0.02 0.47 0.02 92 1014.9
20260506232513 50 68 0.0 0.0 0.02 0.47 0.02 92 1014.9
20260506232010 50 68 0.0 1.0 0.02 0.47 0.02 92 1014.9
20260506231509 50 68 0.0 1.0 0.01 0.46 0.01 92 1014.9
20260506231009 50 68 0.0 2.0 0.01 0.46 0.01 92 1015.0
20260506230509 50 68 0.0 2.0 0.00 0.45 0.00 92 1015.0
20260506230010 50 68 0.0 0.0 0.00 0.46 0.00 92 1014.9
20260506225513 50 68 0.0 2.0 0.00 0.46 0.00 92 1014.9
20260506225007 50 68 0.0 2.0 0.00 0.46 0.00 92 1014.9
20260506224507 50 68 0.0 0.0 0.00 0.46 0.00 92 1014.9
20260506224007 50 68 0.0 0.0 0.00 0.46 0.00 92 1014.9
20260506223509 50 68 0.0 0.0 0.00 0.46 0.00 92 1014.8
20260506223012 50 68 0.0 0.0 0.00 0.46 0.00 92 1014.8
20260506222506 50 68 0.0 1.0 0.00 0.46 0.00 92 1014.8
20260506222008 50 68 0.0 1.0 0.00 0.46 0.00 92 1014.9
20260506221505 50 68 0.0 1.0 0.00 0.46 0.00 92 1014.8
20260506221003 50 68 0.0 0.0 0.00 0.46 0.00 92 1014.8
20260506220502 51 68 0.0 0.0 0.00 0.46 0.00 92 1014.8
20260506215603 51 68 0.0 0.0 0.00 0.46 0.46 91 1014.8
20260506215103 51 68 0.0 1.0 0.00 0.46 0.46 91 1014.9
20260506214600 51 68 0.0 1.0 0.00 0.46 0.46 91 1014.8
20260506214100 51 68 0.0 0.0 0.00 0.46 0.46 91 1014.8
20260506213600 51 68 0.0 0.0 0.00 0.46 0.46 91 1014.8
20260506213059 51 68 0.0 1.0 0.00 0.46 0.46 91 1014.8
20260506212559 51 68 0.0 2.0 0.00 0.46 0.46 91 1014.8
20260506212059 51 68 0.0 2.0 0.00 0.46 0.46 91 1014.8
20260506211558 51 68 0.0 0.0 0.00 0.46 0.46 91 1014.6
20260506211058 51 68 0.0 0.0 0.00 0.46 0.46 91 1014.6
20260506210558 51 68 0.0 0.0 0.00 0.46 0.46 91 1014.6
20260506210058 51 68 0.0 0.0 0.00 0.46 0.46 91 1014.5
20260506205559 51 68 0.0 1.0 0.00 0.46 0.46 91 1014.6
20260506205056 51 68 0.0 0.0 0.00 0.46 0.46 91 1014.5
20260506204601 51 68 0.0 1.0 0.00 0.46 0.46 91 1014.5
20260506204055 51 68 0.0 3.0 0.00 0.46 0.46 91 1014.4
20260506203556 51 68 1.0 3.0 0.00 0.46 0.46 91 1014.4
20260506203055 51 290 0.0 4.0 0.00 0.46 0.46 91 1014.3
20260506202558 51 326 1.0 4.0 0.00 0.46 0.46 91 1014.4
20260506202057 51 191 0.0 3.0 0.00 0.46 0.46 91 1014.3
20260506201557 51 191 0.0 3.0 0.00 0.46 0.46 91 1014.3
20260506201054 51 191 0.0 3.0 0.00 0.46 0.46 92 1014.3
20260506200556 51 191 0.0 3.0 0.00 0.46 0.46 92 1014.1
20260506200108 51 191 0.0 0.0 0.00 0.46 0.46 92 1014.1
20260506195555 51 191 0.0 0.0 0.00 0.46 0.46 92 1014.1
20260506195053 51 191 0.0 0.0 0.00 0.46 0.46 92 1013.9
20260506194606 51 191 0.0 0.0 0.00 0.46 0.46 91 1013.9
20260506194051 51 191 0.0 0.0 0.00 0.46 0.46 91 1013.9
20260506193550 51 191 0.0 1.0 0.00 0.46 0.46 91 1013.7
20260506193050 51 191 0.0 1.0 0.00 0.46 0.46 91 1013.6
20260506192549 51 191 0.0 0.0 0.00 0.46 0.46 91 1013.5
20260506192053 51 191 0.0 0.0 0.00 0.46 0.46 91 1013.6
20260506191549 51 191 0.0 0.0 0.00 0.46 0.46 91 1013.6
20260506191051 51 191 0.0 0.0 0.00 0.46 0.46 91 1013.5
20260506190550 52 191 0.0 0.0 0.00 0.46 0.46 91 1013.4
20260506190048 52 191 0.0 0.0 0.01 0.46 0.46 91 1013.4
20260506185547 52 191 0.0 0.0 0.01 0.46 0.46 91 1013.3
20260506185050 52 191 0.0 0.0 0.01 0.46 0.46 91 1013.2
20260506184547 52 191 0.0 2.0 0.01 0.46 0.46 91 1013.2
20260506184046 52 191 0.0 2.0 0.02 0.46 0.46 91 1013.2
20260506183546 52 191 0.0 0.0 0.02 0.46 0.46 91 1013.2
20260506183059 52 191 0.0 0.0 0.02 0.46 0.46 90 1013.1
20260506182545 52 191 0.0 0.0 0.02 0.46 0.46 91 1013.0
20260506182045 52 191 0.0 0.0 0.02 0.46 0.46 90 1013.0
20260506181553 52 191 0.0 0.0 0.03 0.46 0.46 90 1013.0
20260506181045 52 191 0.0 0.0 0.03 0.46 0.46 90 1013.0
20260506180547 52 191 0.0 0.0 0.03 0.46 0.46 90 1013.0
20260506180044 52 191 0.0 0.0 0.02 0.53 0.45 90 1013.0
20260506175546 52 191 0.0 0.0 0.03 0.53 0.45 90 1013.0
20260506175044 52 191 0.0 0.0 0.03 0.53 0.45 90 1012.9
20260506174543 52 191 0.0 0.0 0.03 0.53 0.45 90 1012.8
20260506174043 52 191 0.0 0.0 0.02 0.52 0.44 90 1012.9
20260506173542 52 191 0.0 0.0 0.02 0.52 0.44 90 1012.8
20260506173052 53 191 0.0 0.0 0.03 0.52 0.44 90 1012.8
20260506172543 53 191 0.0 0.0 0.03 0.52 0.44 90 1012.7
20260506172042 53 191 0.0 0.0 0.03 0.52 0.44 90 1012.6
20260506171545 53 191 0.0 0.0 0.02 0.51 0.43 91 1012.6
20260506171040 53 191 0.0 0.0 0.03 0.51 0.43 91 1012.6
20260506170540 53 191 0.0 0.0 0.03 0.51 0.43 91 1012.5
20260506170044 53 191 0.0 0.0 0.03 0.51 0.43 91 1012.5
20260506165539 53 191 0.0 0.0 0.02 0.50 0.42 90 1012.5
20260506165038 53 191 0.0 0.0 0.02 0.50 0.42 90 1012.5
20260506164546 53 191 0.0 0.0 0.03 0.50 0.42 90 1012.4
20260506164037 53 191 0.0 0.0 0.03 0.50 0.42 90 1012.4
20260506163537 53 191 0.0 0.0 0.04 0.50 0.42 90 1012.3
20260506163037 53 191 0.0 0.0 0.03 0.49 0.41 90 1012.3
20260506162536 53 191 0.0 0.0 0.03 0.49 0.41 90 1012.3
20260506162036 53 191 0.0 0.0 0.03 0.49 0.41 90 1012.3
20260506161544 53 191 0.0 0.0 0.03 0.49 0.41 90 1012.3
20260506161036 53 191 0.0 0.0 0.02 0.48 0.40 90 1012.2
20260506160536 53 191 0.0 0.0 0.02 0.48 0.40 90 1012.3
20260506160043 53 191 0.0 0.0 0.02 0.48 0.40 90 1012.2
20260506155535 53 191 0.0 0.0 0.02 0.48 0.40 90 1012.3
20260506155035 53 191 0.0 0.0 0.02 0.48 0.40 90 1012.2
20260506154535 53 191 0.0 0.0 0.01 0.47 0.39 90 1012.2
20260506154035 53 191 0.0 0.0 0.01 0.47 0.39 90 1012.2
20260506153535 53 191 0.0 0.0 0.00 0.46 0.38 90 1012.1
20260506153035 53 191 0.0 0.0 0.00 0.46 0.38 89 1012.1
20260506152535 53 191 0.0 0.0 0.00 0.46 0.38 90 1012.1
20260506152038 53 191 0.0 0.0 0.01 0.46 0.38 90 1012.1
20260506151543 53 191 0.0 0.0 0.01 0.46 0.38 89 1012.0
20260506151034 53 191 0.0 0.0 0.01 0.46 0.38 89 1012.1
20260506150534 52 191 0.0 0.0 0.01 0.46 0.38 89 1012.1
20260506150034 52 191 0.0 0.0 0.01 0.46 0.38 89 1012.0
20260506145534 52 191 0.0 0.0 0.01 0.46 0.38 89 1012.0
20260506145034 52 191 0.0 1.0 0.02 0.46 0.38 89 1012.0
20260506144533 52 191 0.0 2.0 0.02 0.46 0.38 89 1011.9
20260506144041 52 191 0.0 1.0 0.02 0.46 0.38 89 1011.9
20260506143533 52 191 0.0 1.0 0.03 0.46 0.38 89 1011.9
20260506143043 52 191 0.0 1.0 0.03 0.46 0.38 89 1011.9
20260506142532 52 191 0.0 1.0 0.04 0.46 0.38 89 1011.9
20260506142032 52 191 0.0 1.0 0.03 0.45 0.37 89 1011.9
20260506141533 52 191 0.0 1.0 0.03 0.45 0.37 89 1012.0
20260506141034 52 191 0.0 1.0 0.04 0.45 0.37 88 1012.0
20260506140533 52 191 0.0 1.0 0.05 0.45 0.37 88 1012.0
20260506140036 52 191 0.0 3.0 0.05 0.45 0.37 89 1012.0
20260506135531 52 191 0.0 3.0 0.05 0.45 0.37 89 1012.0
20260506135031 52 191 0.0 1.0 0.04 0.44 0.36 88 1012.1
20260506134532 52 191 0.0 2.0 0.05 0.44 0.36 89 1012.1
20260506134033 52 191 0.0 2.0 0.06 0.44 0.36 88 1012.1
20260506133531 52 191 0.0 4.0 0.05 0.43 0.35 88 1012.0
20260506133034 52 257 1.0 4.0 0.06 0.43 0.35 88 1012.0
20260506132531 52 5 0.0 3.0 0.05 0.42 0.34 89 1012.0
20260506132031 52 46 0.0 2.0 0.06 0.42 0.34 90 1012.0
20260506131533 52 46 0.0 2.0 0.06 0.42 0.34 90 1012.0
20260506131134 52 27 0.0 3.0 0.07 0.41 0.33 90 1011.9
20260506130530 53 310 0.0 4.0 0.06 0.40 0.32 90 1011.8
20260506130032 53 238 0.0 8.0 0.08 0.40 0.32 90 1011.8
20260506125529 53 259 1.0 8.0 0.08 0.40 0.32 90 1011.7
20260506125029 53 277 0.0 6.0 0.14 0.40 0.32 90 1011.6
20260506124530 53 254 1.0 6.0 0.19 0.39 0.31 90 1011.5
20260506124029 53 186 1.0 4.0 0.18 0.38 0.30 90 1011.5
20260506123529 53 106 1.0 3.0 0.19 0.38 0.30 90 1011.5
20260506123029 53 109 0.0 2.0 0.19 0.37 0.28 90 1011.4
20260506122528 53 109 0.0 3.0 0.21 0.37 0.28 89 1011.3
20260506122028 53 109 0.0 3.0 0.22 0.36 0.28 89 1011.2
20260506121529 54 132 0.0 8.0 0.21 0.35 0.27 88 1011.2
20260506121029 54 263 0.0 8.0 0.21 0.34 0.26 88 1011.1
20260506120529 54 167 1.0 4.0 0.21 0.33 0.25 88 1011.1
20260506120031 55 182 1.0 3.0 0.20 0.32 0.24 88 1011.1
20260506115527 55 77 0.0 9.0 0.19 0.31 0.23 88 1011.0
20260506115028 56 241 4.0 9.0 0.12 0.24 0.16 88 1010.9
20260506114538 56 181 0.0 0.0 0.09 0.20 0.12 89 1010.6
20260506114027 56 181 0.0 0.0 0.09 0.20 0.12 88 1010.6
20260506113527 56 181 0.0 0.0 0.09 0.19 0.11 88 1010.5
20260506113029 56 181 0.0 0.0 0.08 0.18 0.10 87 1010.6
20260506112527 56 181 0.0 0.0 0.06 0.16 0.08 87 1010.5
20260506112025 56 181 0.0 0.0 0.04 0.14 0.06 87 1010.5
20260506111525 56 181 0.0 0.0 0.05 0.14 0.06 86 1010.6
20260506111026 56 181 0.0 0.0 0.04 0.13 0.05 86 1010.6
20260506110525 56 181 0.0 0.0 0.03 0.12 0.04 85 1010.6
20260506110024 56 181 0.0 0.0 0.03 0.12 0.04 85 1010.6
20260506105524 57 181 0.0 0.0 0.03 0.12 0.04 85 1010.6
20260506105024 57 181 0.0 0.0 0.03 0.12 0.04 85 1010.4
20260506104523 56 181 0.0 0.0 0.02 0.11 0.03 84 1010.4
20260506104023 57 181 0.0 0.0 0.02 0.11 0.03 84 1010.4
20260506103523 57 181 0.0 0.0 0.01 0.10 0.02 84 1010.3
20260506103023 57 181 0.0 0.0 0.01 0.10 0.02 84 1010.2
20260506102523 57 181 0.0 0.0 0.01 0.10 0.02 84 1010.2
20260506102023 57 181 0.0 0.0 0.01 0.10 0.02 83 1010.2
20260506101542 57 181 0.0 0.0 0.00 0.09 0.01 83 1010.2
20260506101022 57 181 0.0 0.0 0.00 0.09 0.01 82 1010.2
20260506100525 57 181 0.0 0.0 0.00 0.09 0.01 82 1010.2
20260506100021 57 181 0.0 0.0 0.00 0.09 0.01 81 1010.2
20260506095521 57 181 0.0 0.0 0.00 0.09 0.01 81 1010.2
20260506095022 57 181 0.0 2.0 0.00 0.09 0.01 81 1010.1
20260506094521 57 181 0.0 2.0 0.00 0.09 0.01 81 1010.1
20260506094022 57 181 0.0 2.0 0.00 0.09 0.01 82 1009.9
20260506093519 56 181 0.0 2.0 0.00 0.09 0.01 82 1009.9
20260506093019 56 181 0.0 2.0 0.00 0.09 0.01 83 1009.9
20260506092518 56 181 0.0 2.0 0.00 0.09 0.01 83 1009.8
20260506092019 56 181 0.0 3.0 0.00 0.09 0.01 83 1009.9
20260506091521 56 181 0.0 3.0 0.00 0.09 0.01 84 1009.9
20260506091017 56 230 0.0 3.0 0.00 0.09 0.01 86 1009.9
20260506090515 56 197 0.0 3.0 0.00 0.09 0.01 87 1009.8
20260506090015 55 197 0.0 3.0 0.00 0.09 0.01 88 1009.9
20260506085514 55 250 0.0 3.0 0.00 0.09 0.01 89 1009.9
20260506085014 55 252 0.0 3.0 0.00 0.09 0.01 90 1009.8
20260506084519 55 25 0.0 0.0 0.00 0.09 0.01 91 1009.7
20260506084013 55 25 0.0 0.0 0.00 0.09 0.01 92 1009.8
20260506083512 55 25 0.0 0.0 0.00 0.09 0.01 92 1009.7
20260506083012 55 25 0.0 0.0 0.00 0.09 0.01 92 1009.7
20260506082511 55 319 0.0 0.0 0.00 0.09 0.01 93 1009.6
20260506082016 55 291 0.0 0.0 0.00 0.09 0.01 94 1009.4
20260506081510 54 291 0.0 0.0 0.00 0.09 0.01 94 1009.4
20260506081013 54 291 0.0 0.0 0.00 0.09 0.01 94 1009.5
20260506080511 54 291 0.0 0.0 0.00 0.09 0.01 94 1009.5